Location: LDNL
(36.4545°S, 141.6685°E)
Time: 18:51:32
(UTC+10:00)

Tiros 1 despin weight - Pass Details

Date: 01 February 2022
Orbit: 592 x 639 km, 48.2° (Epoch: 28 May)

Event Time Altitude Azimuth Distance (km) Brightness Sun altitude
Exits shadow 05:47:17 - 252° (WSW) 2,435 ? -11.9°
Reaches altitude 10° 05:48:40 10° 243° (WSW) 2,007 ? -11.7°
Maximum altitude 05:52:14 21° 192° (SSW) 1,393 ? -11.1°
Drops below altitude 10° 05:55:45 10° 142° (SE) 1,987 ? -10.5°
Sets 05:58:31 0° 125° (SE) 2,883 ? -10.0°
